Weather History for Marion, IN

Change the Weather History Date:

Wednesday, June 11, 2014

  Actual Average (KMIE) Record (KMIE)
Temperature  
Mean Temperature 69 °F 70 °F  
Max Temperature 74 °F 80 °F 98 °F (1973)
Min Temperature 64 °F 61 °F 43 °F (1980)
Degree Days  
Heating Degree Days 0 1  
Month to date heating degree days 16  
Since 1 June heating degree days 16  
Since 1 July heating degree days 5775  
Cooling Degree Days 4 6  
Month to date cooling degree days 58  
Year to date cooling degree days 141  
Since 1 June cooling degree days 58  
Growing Degree Days 19 (Base 50)    
Moisture  
Dew Point 64 °F    
Average Humidity 85    
Maximum Humidity 97    
Minimum Humidity 69    
Precipitation  
Precipitation 0.73 in 0.16 in 1.77 in (2004)
Month to date precipitation 1.79  
Year to date precipitation 17.36  
Sea Level Pressure  
Sea Level Pressure 29.75 in    
Wind  
Wind Speed 10 mph (South)    
Max Wind Speed 13 mph    
Max Gust Speed 18 mph    
Visibility 7 miles    
Events Rain    
T = Trace of Precipitation, MM = Missing Value Source: NWS Daily Summary

Daily Weather History Graph

Daily Weather History Graph

Search for Another Location

Airport:

Trip Planner

Search our weather history database for the weather conditions in past years. The results will help you decide how hot, cold, wet, or windy it might be!

Date:

Astronomy

Jun. 11, 2014 Rise Set
Actual Time 6:11 AM EDT 9:13 PM EDT
Civil Twilight 5:38 AM EDT 9:46 PM EDT
Nautical Twilight 4:56 AM EDT 10:28 PM EDT
Astronomical Twilight 4:07 AM EDT 11:17 PM EDT
Moon 7:41 PM EDT (6/11) 5:01 AM EDT (6/11)
Length of Visible Light 16h 07m
Length of Day
15h 01m
Waxing Gibbous, 97% of the Moon is Illuminated
Jun 11
Waxing Gibbous
Jun 13
Full
Jun 19
Last Quarter
Jun 27
New
Jul 5
First Quarter

Hourly Weather History & Observations

Time (EDT) Temp. Dew Point Humidity Pressure Visibility Wind Dir Wind Speed Gust Speed Precip Events Conditions
12:15 AM 66.2 °F 64.6 °F 94% 29.78 in 4.0 mi SE 11.5 mph - N/A   Mist
12:35 AM 66.2 °F 64.8 °F 95% 29.78 in 4.0 mi SE 10.4 mph - N/A   Mist
12:55 AM 66.4 °F 64.8 °F 95% 29.77 in 3.0 mi SE 11.5 mph - N/A   Mist
1:15 AM 66.2 °F 64.6 °F 94% 29.76 in 4.0 mi SE 10.4 mph - N/A   Mist
1:35 AM 66.2 °F 64.4 °F 94% 29.76 in 4.0 mi SE 9.2 mph - N/A   Mist
1:55 AM 66.2 °F 64.4 °F 94% 29.76 in 5.0 mi SSE 11.5 mph - N/A   Mist
2:15 AM 66.2 °F 64.0 °F 93% 29.76 in 7.0 mi SSE 11.5 mph 16.1 mph N/A   Unknown
2:35 AM 66.0 °F 63.5 °F 92% 29.75 in 7.0 mi SSE 11.5 mph - N/A   Unknown
2:55 AM 65.7 °F 63.0 °F 91% 29.75 in 10.0 mi SSE 10.4 mph 17.3 mph N/A   Unknown
3:15 AM 65.1 °F 62.4 °F 91% 29.75 in 10.0 mi SSE 10.4 mph - N/A   Unknown
3:35 AM 64.9 °F 62.4 °F 92% 29.75 in 10.0 mi SSE 11.5 mph - N/A   Unknown
4:15 AM 65.3 °F 62.6 °F 91% 29.74 in 7.0 mi SSE 8.1 mph - N/A   Unknown
4:35 AM 65.1 °F 62.6 °F 92% 29.73 in 7.0 mi SE 8.1 mph - N/A   Unknown
4:55 AM 65.3 °F 62.8 °F 92% 29.73 in 10.0 mi SSE 11.5 mph - N/A Rain Light Rain
5:15 AM 65.3 °F 62.8 °F 92% 29.73 in 7.0 mi SSE 9.2 mph - N/A   Unknown
5:35 AM 65.3 °F 63.1 °F 93% 29.74 in 5.0 mi South 11.5 mph - N/A Rain Light Rain
5:55 AM 65.5 °F 63.5 °F 93% 29.74 in 4.0 mi South 11.5 mph - 0.03 in Rain Rain
6:15 AM 65.3 °F 63.7 °F 94% 29.75 in 7.0 mi SSW 10.4 mph - 0.02 in Rain Light Rain
6:35 AM 65.1 °F 63.5 °F 94% 29.75 in 7.0 mi SSW 9.2 mph - 0.02 in   Unknown
6:55 AM 64.9 °F 63.1 °F 94% 29.75 in 4.0 mi South 8.1 mph - 0.02 in   Mist
7:15 AM 64.8 °F 63.3 °F 95% 29.76 in 5.0 mi SSW 5.8 mph - N/A   Mist
7:35 AM 65.7 °F 64.0 °F 94% 29.76 in 7.0 mi SSW 8.1 mph - N/A   Unknown
7:55 AM 66.7 °F 64.2 °F 92% 29.77 in 7.0 mi SSW 9.2 mph - N/A   Unknown
8:15 AM 66.4 °F 63.7 °F 91% 29.77 in 5.0 mi SSW 9.2 mph - N/A   Mist
8:35 AM 67.1 °F 63.9 °F 89% 29.77 in 7.0 mi SSW 8.1 mph - N/A   Unknown
8:55 AM 68.5 °F 63.7 °F 84% 29.78 in 7.0 mi SSW 10.4 mph - N/A   Unknown
9:15 AM 68.9 °F 63.7 °F 83% 29.78 in 10.0 mi SSW 8.1 mph - N/A   Unknown
9:35 AM 69.4 °F 63.7 °F 82% 29.78 in 7.0 mi SSW 10.4 mph 18.4 mph N/A   Unknown
9:55 AM 70.0 °F 63.1 °F 79% 29.78 in 5.0 mi SSW 12.7 mph - N/A   Haze
10:15 AM 69.1 °F 62.8 °F 80% 29.78 in 7.0 mi SSW 10.4 mph - N/A   Unknown
10:35 AM 68.9 °F 62.6 °F 80% 29.78 in 7.0 mi SW 11.5 mph - N/A   Unknown
10:55 AM 68.9 °F 62.4 °F 80% 29.77 in 7.0 mi SSW 10.4 mph - N/A   Unknown
11:15 AM 68.5 °F 63.0 °F 82% 29.78 in 5.0 mi South 9.2 mph - N/A Rain Light Rain
11:35 AM 68.4 °F 64.0 °F 86% 29.77 in 7.0 mi South 8.1 mph - N/A   Unknown
11:55 AM 68.4 °F 63.7 °F 85% 29.77 in 7.0 mi South 9.2 mph - N/A   Unknown
12:15 PM 68.7 °F 64.0 °F 85% 29.77 in 7.0 mi South 9.2 mph - N/A   Unknown
12:35 PM 68.9 °F 63.9 °F 84% 29.77 in 7.0 mi South 8.1 mph - N/A   Unknown
12:55 PM 68.9 °F 64.0 °F 84% 29.76 in 7.0 mi SSE 6.9 mph - N/A   Unknown
1:15 PM 68.7 °F 63.9 °F 84% 29.76 in 7.0 mi SSE 8.1 mph - N/A   Unknown
1:35 PM 69.3 °F 63.7 °F 82% 29.76 in 7.0 mi SSE 9.2 mph - N/A   Unknown
1:55 PM 70.3 °F 63.5 °F 79% 29.76 in 10.0 mi South 12.7 mph - N/A   Unknown
2:15 PM 70.5 °F 63.7 °F 79% 29.75 in 10.0 mi South 10.4 mph - N/A   Unknown
2:35 PM 70.7 °F 63.5 °F 78% 29.75 in 7.0 mi South 10.4 mph - N/A   Unknown
2:55 PM 70.3 °F 63.7 °F 79% 29.75 in 10.0 mi South 10.4 mph - N/A   Unknown
3:15 PM 72.3 °F 64.4 °F 76% 29.74 in 7.0 mi South 9.2 mph - N/A   Unknown
3:35 PM 73.4 °F 64.0 °F 72% 29.73 in 10.0 mi South 8.1 mph - N/A   Unknown
3:55 PM 74.3 °F 64.2 °F 71% 29.73 in 10.0 mi South 11.5 mph 16.1 mph N/A   Unknown
4:15 PM 74.5 °F 63.9 °F 69% 29.73 in 10.0 mi South 11.5 mph 16.1 mph N/A   Unknown
4:35 PM 73.6 °F 63.7 °F 71% 29.72 in 10.0 mi South 11.5 mph - N/A   Unknown
4:55 PM 73.6 °F 64.2 °F 72% 29.72 in 7.0 mi SSE 10.4 mph - N/A   Unknown
5:15 PM 72.9 °F 64.8 °F 76% 29.72 in 10.0 mi SSE 9.2 mph - N/A   Unknown
5:35 PM 72.9 °F 64.6 °F 75% 29.72 in 10.0 mi South 9.2 mph - N/A   Unknown
5:55 PM 72.9 °F 64.4 °F 75% 29.72 in 10.0 mi SSE 8.1 mph - N/A   Unknown
6:15 PM 73.6 °F 64.4 °F 73% 29.71 in 7.0 mi SSE 9.2 mph - N/A   Unknown
6:35 PM 73.8 °F 63.9 °F 71% 29.71 in 7.0 mi South 9.2 mph - N/A   Unknown
6:55 PM 73.2 °F 63.7 °F 72% 29.71 in 7.0 mi South 8.1 mph - N/A   Unknown
7:15 PM 72.5 °F 64.2 °F 75% 29.71 in 10.0 mi South 9.2 mph - N/A   Unknown
7:35 PM 71.6 °F 64.2 °F 77% 29.71 in 7.0 mi South 10.4 mph - N/A   Unknown
7:55 PM 70.9 °F 64.4 °F 80% 29.71 in 10.0 mi South 12.7 mph - N/A   Unknown
8:15 PM 70.2 °F 64.0 °F 81% 29.71 in 10.0 mi South 10.4 mph - N/A   Unknown
8:35 PM 69.4 °F 63.7 °F 82% 29.72 in 10.0 mi South 9.2 mph - N/A   Unknown
8:55 PM 69.1 °F 63.7 °F 83% 29.73 in 10.0 mi WSW 6.9 mph - N/A   Unknown
9:15 PM 68.7 °F 63.1 °F 82% 29.74 in 3.0 mi WSW 3.5 mph - 0.07 in Rain Heavy Rain
9:35 PM 67.1 °F 64.0 °F 90% 29.75 in 1.2 mi SW 3.5 mph - 0.37 in Rain Rain
9:55 PM 66.6 °F 64.9 °F 95% 29.74 in 7.0 mi Calm Calm - 0.39 in   Overcast
10:15 PM 66.7 °F 65.3 °F 95% 29.76 in 1.5 mi Calm Calm - 0.09 in Rain Heavy Rain
10:35 PM 66.7 °F 65.3 °F 95% 29.76 in 3.0 mi SSE 4.6 mph - 0.23 in Rain Light Rain
10:55 PM 66.4 °F 65.3 °F 96% 29.76 in 3.0 mi Calm Calm - 0.29 in Rain Light Rain
11:35 PM 66.0 °F 64.8 °F 96% 29.76 in 7.0 mi West 3.5 mph - N/A   Mostly Cloudy
11:55 PM 66.2 °F 65.3 °F 97% 29.77 in 7.0 mi West 3.5 mph - N/A   Overcast